Regional Weather Roundup
Issued by NWS Boston, MA

Home | Current Version | Previous Version | Text Only | Print | Product List | Glossary On
Versions: 1 2 3 4 5 6 7 8 9 10 11 12 13 14 15 16 17 18 19 20 21 22 23 24 25 26 27 28
000
ASUS41 KBOX 260810
RWRBOX

REGIONAL WEATHER ROUNDUP
NATIONAL WEATHER SERVICE TAUNTON MA
400 AM EDT TUE SEP 26 2017

NOTE:  "FAIR" INDICATES FEW OR NO CLOUDS BELOW 12,000 FEET WITH NO
SIGNIFICANT WEATHER AND/OR OBSTRUCTIONS TO VISIBILITY.

MAZALL-260900-
EASTERN MASSACHUSETTS

CITY           SKY/WX    TMP DP  RH WIND       PRES   REMARKS
BOSTON         FOG       65  65 100 CALM      30.03F VSB 1/2
BEVERLY        FOG       64  64 100 CALM      30.03F VSB 1/4
LAWRENCE       FOG       66  64  93 CALM      30.06S VSB 1/4
BEDFORD        FOG       63  61  93 CALM      30.03S VSB 1/4
BLUE HILL        N/A     66  65  96 W6        30.04F
NORWOOD        FOG       69  68  96 CALM      30.02F VSB 1/2
MARSHFIELD     MOCLDY    64  64 100 CALM      30.02F
PLYMOUTH       CLOUDY    66  65  96 N3        30.03F FOG
TAUNTON        FOG       67  66  97 CALM      30.02F VSB 1/2
NEW BEDFORD    CLOUDY    65  65 100 CALM      30.02S
$$

MAZALL-260900-
CAPE COD AND THE ISLANDS

CITY           SKY/WX    TMP DP  RH WIND       PRES   REMARKS
FALMOUTH       FOG       64  64 100 CALM      30.04S VSB 1/4
HYANNIS        FOG       65  65 100 CALM      30.01F VSB 1/4
CHATHAM        FOG       65  65 100 CALM      30.04S VSB 1/2
PROVINCETOWN   CLOUDY    63  62  97 CALM      30.03F FOG
NANTUCKET      FOG       64  64 100 CALM      30.02S VSB 1/4
MARTHAS VNYRD  LGT RAIN  66  64  93 NE3       30.02F VSB 1
$$

MAZALL-260900-
CENTRAL AND WESTERN MASSACHUSETTS

CITY           SKY/WX    TMP DP  RH WIND       PRES   REMARKS
WORCESTER      CLEAR     67  62  84 NW5       30.06F
FITCHBURG      CLEAR     63  61  93 CALM      30.05F
ORANGE         FOG       63  63 100 CALM      30.05S VSB 1/4
SPRINGFIELD    CLEAR     62  60  96 CALM      30.03S
WESTFIELD      CLEAR     64  64 100 CALM      30.04S
NORTH ADAMS    CLEAR     61  60  97 CALM      30.06S FOG
PITTSFIELD     FOG       64  63  96 CALM      30.07S VSB 1/4
$$

RIZALL-260900-
RHODE ISLAND

CITY           SKY/WX    TMP DP  RH WIND       PRES   REMARKS
PROVIDENCE     CLOUDY    69  68  96 CALM      30.04F
NEWPORT        FOG       65  65 100 CALM      30.03F VSB 1/2
BLOCK ISLAND   FOG       64  64 100 CALM      30.03F VSB 1/2
SMITHFIELD     CLOUDY    66  66 100 CALM      30.04F FOG
WESTERLY       CLOUDY    67  66  97 CALM      30.04S FOG
$$

CTZALL-260900-
CONNECTICUT

CITY           SKY/WX    TMP DP  RH WIND       PRES   REMARKS
BRADLEY INTL   PTCLDY    65  64  97 SW3       30.04S
HARTFORD       CLOUDY    65  65 100 S5        30.03F FOG
BRIDGEPORT     CLOUDY    69  67  93 CALM      30.04F FOG
DANBURY        PTCLDY    64  62  93 CALM      30.06F
GROTON         CLOUDY    67  66  97 CALM      30.03S FOG
NEW HAVEN      CLOUDY    67  67 100 CALM      30.04F FOG
CHESTER        FOG       66  66 100 CALM      30.05F VSB 1
MERIDEN        FOG       63  63 100 CALM      30.04F VSB 1/4
WILLIMANTIC    CLOUDY    68  67  96 CALM      30.05S
OXFORD         MOCLDY    62  62 100 CALM      30.06F
$$

MEZ002-015-021-024-NHZ003-005-008-011-012-014-VTZ005-008-260900-
NORTHERN NEW ENGLAND

CITY           SKY/WX    TMP DP  RH WIND       PRES   REMARKS
PORTLAND ME    CLEAR     63  62  97 CALM      30.03S
BANGOR ME      CLEAR     65  60  84 S9        30.02R
CONCORD NH     CLEAR     62  60  93 CALM      30.04F
MANCHESTER NH  CLEAR     65  63  93 CALM      30.02F
NASHUA NH      CLEAR     62  61  96 CALM      30.04F
PORTSMOUTH NH  FOG       63  63 100 S5        30.02F VSB 1/16
JAFFREY NH     CLEAR     61  61 100 CALM      30.07F FOG
KEENE NH       PTCLDY    63  61  94 CALM      30.06S FOG
BURLINGTON VT  PTCLDY    67  66  97 CALM      30.01S
MT. WASHINGTON PTCLDY    59  48  67 SW5         N/A
$$

NYZ052-076-260900-
EASTERN NEW YORK

CITY           SKY/WX    TMP DP  RH WIND       PRES   REMARKS
ALBANY         PTCLDY    68  66  93 CALM      30.04R
NEW YORK CITY  CLOUDY    70  67  90 E5        30.03F
$$

ANZALL-260900-
MARINE OBSERVATIONS

STATION/POSITION TIME  TEMP    WIND        PRES    VSBY  WAVE
                       AIR SEA DIR/SP/G                  HT/PER
                 (UTC) (F)     (DEG/KT/KT) (MB)    (MI)  (FT/S)
BOSTON BUOY      0750   62 63  210/  2/  4 1016.8F         3/14
BUZZARDS BAY     0700   65      10/  4/  5 1017.4F
NANTUCKET SOUND  0750   62 62   20/  2/  4 1016.6F         1/15
MASS BAY-STELLWA 0704   62 63  260/  4/  4 1016.5F         4/16
ISLE OF SHOALS   0700   62     180/  6/  7 1017.2R
S OF BLOCK IS    NOT AVBL
$$

......................KEY.........................
  SKY/WX - SKY CONDITION/PRESENT WEATHER
  TMP    - TEMPERATURE IN FAHRENHEIT
  DWPT   - DEWPOINT IN FAHRENHEIT
  RH     - RELATIVE HUMIDITY IN PERCENT
  WIND   - DIRECTION AND SPEED IN MPH
  PRES   - MEAN SEA LEVEL PRESSURE IN INCHES OF HG
  WCI    - WIND CHILL INDEX
  VSB    - VISIBILITY IN MILES
  HX     - HEAT INDEX
  TC     - TEMPERATURE IN CELSIUS
  VRB    - VARIABLE WIND DIRECTION
  N/A    - NOT AVAILABLE




USA.gov is the U.S. government's official web portal to all federal, state and local government web resources and services.